Regional Weather Roundup
Issued by NWS Goodland, KS

Home | Current Version | Previous Version | Graphics & Text | Print | Product List | Glossary On
Versions: 1 2 3 4 5 6 7 8 9 10 11 12 13 14 15 16 17 18 19 20 21 22 23 24 25 26 27 28 29 30 31 32 33 34 35 36 37 38 39 40 41 42 43 44 45 46 47 48 49 50
000
ASUS43 KGLD 301259
RWRGLD

GOODLAND FORECAST AREA HOURLY WEATHER ROUNDUP
NATIONAL WEATHER SERVICE GOODLAND KS
700 AM MDT WED JUL 30 2014

...OFFICIAL OBSERVATIONS...

CITY           SKY/WX    TMP DP  RH WIND       PRES   REMARKS
GOODLAND KS    LGT RAIN  59  57  93 E17       30.21R
HILL CITY KS   CLOUDY    66  60  81 NE10      30.15S
IMPERIAL NEB   CLOUDY    63  60  90 NE5       30.23R
MCCOOK NEB     CLOUDY    63  62  97 NE5       30.20R
AKRON CO       LGT RAIN  59  58  96 E8        30.27R FOG
BURLINGTON CO  CLOUDY    59  56  89 E15       30.22R
LIMON CO       CLOUDY    58  56  93 NE12      30.27R
$$

...UNOFFICIAL OBSERVATIONS...

CITY           SKY/WX    TMP DP  RH WIND       PRES   REMARKS
COLBY KS       RAIN      63  63 100 N8        30.19S
GOVE KS          N/A     62  32  32 MISG        N/A
NORTON KS      CLOUDY    63  61  94 CALM      30.17R
KIT CARSON CO    N/A     60  57  89 NE15G22     N/A
YUMA CO          N/A     60  60 100 E9          N/A
$$



USA.gov is the U.S. government's official web portal to all federal, state and local government web resources and services.